Flag for Slovenia Weather past 2 weeks in Celje, Slovenia

Now
61 °F

Cool.


Feels Like: 61 °F
Forecast: 65 / 84 °F
Wind: 1 mph from West

Location: Celje

Current Time: Jul 2, 2015 at 6:06:43 AM

Latest Report: Jul 2, 2015 at 5:00 AM


Visibility: N/A

Pressure: 30.20 "Hg

Humidity: 97%

Dew point: 60 °F

Location of CeljeLocation

Historic Weather in Celje — Graph

°F

Celje temperature yesterday

Maximum temperature yesterday: 85 °F (at 3:00 PM)
Minimum temperature yesterday: 59 °F (at 5:00 AM)
Average temperature yesterday: 73 °F

Past Weeks' High & Low Weather Summary

 TemperatureHumidityPressure
High85 °F (Jul 1, 3:00 PM)98% (Jun 21, 3:00 AM)30.28 "Hg (Jun 21, 3:00 AM)
Low45 °F (Jun 18, 5:00 AM)39% (Jun 21, 4:00 PM)29.78 "Hg (Jun 23, 9:00 AM)
Average63 °F77%30.08 "Hg
* Reported Jun 17 4:00 AM — Jul 2 4:00 AM, Celje, Weather by CustomWeather, © 2015

Note: Actual official high and low records may vary slightly from our data, if they occured in-between our weather recording intervals... More about our weather records

Advertising

Celje weather history for previous 24 hours

 ConditionsComfort  
Time TempWeatherWind HumidityBarometerVisibility
4:00 AM
Thu, Jul 2
61 °FCool.1 mph97%30.20 "HgN/A
3:00 AM61 °FCool.1 mph97%30.20 "HgN/A
2:00 AM62 °FCool.1 mph95%30.21 "HgN/A
1:00 AM63 °FMild.No wind93%30.20 "HgN/A
12:00 AM65 °FMild.No wind90%30.19 "HgN/A
10:00 PM
Wed, Jul 1
70 °FMild.1 mph81%30.16 "HgN/A
9:00 PM74 °FMild.1 mph72%30.14 "HgN/A
8:00 PM79 °FPassing clouds.2 mph57%30.11 "Hg19 mi
7:00 PM82 °FWarm.2 mph50%30.10 "HgN/A
6:00 PM84 °FWarm.1 mph47%30.09 "HgN/A
5:00 PM84 °FWarm.2 mph47%30.10 "HgN/A
4:00 PM84 °FWarm.2 mph52%30.11 "HgN/A
3:00 PM85 °FScattered clouds.3 mph50%30.11 "Hg19 mi
2:00 PM83 °FPartly sunny.3 mph51%30.12 "Hg19 mi
1:00 PM83 °FWarm.3 mph55%30.12 "HgN/A
12:00 PM82 °FWarm.2 mph55%30.14 "HgN/A
11:00 AM79 °FWarm.1 mph58%30.14 "HgN/A
9:00 AM71 °FMild.1 mph69%30.16 "HgN/A
8:00 AM68 °FPassing clouds.2 mph79%30.16 "Hg25 mi
7:00 AM64 °FScattered clouds.2 mph89%30.17 "Hg25 mi
6:00 AM59 °FCool.1 mph97%30.17 "HgN/A
Weather by CustomWeather, © 2015

See weather overviewHow to use our weather pages